AirNav   ATP
 
 953 users online  

1TX4 New Gulf Airport
New Gulf, Texas, USA


FAA INFORMATION EFFECTIVE 04 JANUARY 2018

Location

FAA Identifier: 1TX4
Lat/Long: 29-16-24.0250N / 095-53-12.8500W
29-16.400417N / 095-53.214167W
29.2733403 / -95.8869028
(estimated)
Elevation: 100 ft. / 30 m (estimated)
From city: 2 miles E of NEW GULF, TX
Time zone: UTC -6 (UTC -5 during Daylight Saving Time)
Zip code: 77420

Airport Operations

Airport use: Private use. Permission required prior to landing
Activation date: 08/2003
Control tower: no
ARTCC: HOUSTON CENTER
FSS: MONTGOMERY COUNTY FLIGHT SERVICE STATION
Attendance: UNATNDD
Segmented circle: no

Airport Communications

WX AWOS-3 at ARM (14 nm W): 118.475 (979-532-2791)
WX AWOS-3 at BYY (18 nm S): 118.075 (979-323-1801)

Nearby radio navigation aids

VOR radial/distance  VOR name  Freq  Var
ELAr128/32.4EAGLE LAKE VOR/DME116.4008E
PSXr028/37.6PALACIOS VORTAC117.3008E
HUBr229/39.3HOBBY VOR/DME117.1005E

 
NDB name  Hdg/Dist  Freq  Var  ID
WHARTON079/13.924506EARM .- .-. --

Airport Services

Runway Information

Runway 15/33

Dimensions: 4300 x 75 ft. / 1311 x 23 m
Surface: asphalt, in poor condition
RY HAS LOOSE AGGREGATE, CRACKING & UNEVEN PATCHES.
Runway edge markings: NO RY NR. RY MARKINGS 4 INCHES WIDE, NSTD SPACING, DO NOT EXTEND FULL RY LENGTH & CNTRLN OFFSET APPROXLY 12 FT ON RY END.
RUNWAY 15  RUNWAY 33
Latitude: 29-16.732500N29-16.068333N
Longitude: 095-53.356667W095-53.071667W
Elevation: 100.0 ft.100.0 ft.
Traffic pattern: leftleft
Runway heading: 159 true339 true
Markings: NSTD, in poor conditionNSTD, in poor condition
Obstructions: 12 ft. tree, 220 ft. from runway, 33 ft. left of centerline, 1:1 slope to clear
5 FT FENCE ON CNTRLN 98 FT FM THLD, ROAD ON RY EXTENDING BYD THLD.
27 ft. pline, 336 ft. from runway, 62 ft. left of centerline, 5:1 slope to clear
5 FT FENCE PARALLEL TO RY 40 FT FM CNTRLN EXTENDING 117 FT FM THLD.

Airport Ownership and Management from official FAA records

Ownership: Privately-owned
Owner: H & L NEW GULF
132 AVE G
NEW GULF, TX 77462
Phone 979-429-6955
Manager: BOB JACKSON
HANGAR 1
NEW GULF, TX 77462
Phone 979-429-6955

Airport Operational Statistics

Aircraft operations: 100/year *
100% transient general aviation
* for 12-month period ending 21 May 2011

Additional Remarks

LIVESTOCK ON FIELD AND VEHICULAR TRAFFIC ON RY.

Instrument Procedures

There are no published instrument procedures at 1TX4.

Some nearby airports with instrument procedures:

KARM - Wharton Regional Airport (14 nm W)
KBYY - Bay City Regional Airport (18 nm S)
KSGR - Sugar Land Regional Airport (24 nm NE)
KLBX - Texas Gulf Coast Regional Airport (24 nm SE)
KAXH - Houston Southwest Airport (26 nm NE)
 
Loc | Ops | Rwys | IFR | FBO | Links
Com | Nav | Svcs | Stats | Notes


 
Area around 1TX4 (New Gulf Airport)
 
Road maps at: MapQuest Bing Google
 
Aerial photo
WARNING: Photo may not be current or correct
Aerial photo of 1TX4 (New Gulf Airport)
Taken in September 2007

Do you have a better or more recent aerial photo of New Gulf Airport that you would like to share? If so, please send us your photo.

 
Sectional chart

 
Airport distance calculator
Flying to New Gulf Airport? Find the distance to fly.

From to 1TX4

Sunrise and sunset
Times for 19-Jan-2018
 Local
(UTC-6)
 Zulu
(UTC)
Morning civil twilight06:5412:54
Sunrise07:1913:19
Sunset17:5023:50
Evening civil twilight18:1500:15

Current date and time
Zulu (UTC)  20-Jan-2018 01:01:26
Local (UTC-6)  19-Jan-2018 19:01:26
 
METAR
KARM 
14nm W 
200055Z AUTO 11008KT 7SM OVC008 14/13 A3011 RMK AO2 P0001 T01440131
KBYY 
18nm S 
200055Z AUTO 13006KT 7SM SCT007 SCT014 OVC050 15/15 A3011 RMK AO2 T01550153
KLBX 
24nm SE 
200053Z AUTO 08006KT 6SM BR FEW003 BKN015 OVC075 13/12 A3013 RMK AO2 RAE32 SLP201 P0000 T01280122
KSGR 
24nm NE 
200053Z 11007KT 5SM BR OVC005 12/11 A3013 RMK AO2 SLP204 T01170106
KAXH 
26nm NE 
200055Z AUTO 11006KT 7SM OVC004 10/10 A3014 RMK AO2 T01000096
TAF
KLBX 
24nm SE 
192112Z 1921/2018 08006KT P6SM VCSH SCT009 BKN013 OVC100 TEMPO 1922/2001 -RA SCT010 OVC025 FM200100 13011KT P6SM OVC015 FM200400 11010KT 6SM BR OVC007 TEMPO 2007/2009 3SM BR OVC006 FM200900 15003KT 2SM BR OVC005 FM201500 18007KT P6SM VCSH BKN005 OVC011
KSGR 
24nm NE 
192012Z 1920/2018 VRB04KT P6SM VCSH BKN009 OVC060 TEMPO 1922/1924 SCT010 OVC030 FM200000 11007KT P6SM OVC010 FM200300 13008KT 5SM BR OVC007 TEMPO 2007/2009 3SM BR OVC006 FM200900 15003KT 2SM BR OVC005 FM201500 18007KT P6SM VCSH BKN005 OVC011
NOTAMs
Click for the latest NOTAMs
NOTAMs are issued by the DoD/FAA and will open in a separate window not controlled by AirNav.

 

 
 

Would you like to see your business listed on this page?

 If your business provides an interesting product or service to pilots, flight crews, aircraft, or users of the New Gulf Airport, you should consider listing it here.  To start the listing process, click on the button below
 
Add a business
 

Other Pages about New Gulf Airport

Update a link
 
Copyright © AirNav, LLC. All rights reserved. Privacy Policy  Contact